| time (UTC) | temp F | wind direction | speed MPH | gust MPH | rain 1hr in | rain 24hr in | rain mn in | humidity % | barometer mb |
| 20260504000005 | 70 | 338 | 4.0 | 12.0 | 0.00 | 0.00 | 0.00 | 20 | 974.3 |
| 20260503234505 | 71 | 52 | 2.0 | 8.0 | 0.00 | 0.00 | 0.00 | 20 | 974.2 |
| 20260503233003 | 71 | 257 | 1.0 | 3.0 | 0.00 | 0.00 | 0.00 | 19 | 974.1 |
| 20260503231503 | 71 | 65 | 5.0 | 14.0 | 0.00 | 0.00 | 0.00 | 18 | 974.1 |
| 20260503230003 | 72 | 312 | 5.0 | 13.0 | 0.00 | 0.00 | 0.00 | 17 | 973.9 |
| 20260503224502 | 72 | 355 | 3.0 | 9.0 | 0.00 | 0.00 | 0.00 | 19 | 973.8 |
| 20260503223101 | 73 | 290 | 4.0 | 10.0 | 0.00 | 0.00 | 0.00 | 19 | 973.7 |
| 20260503221600 | 73 | 338 | 2.0 | 12.0 | 0.00 | 0.00 | 0.00 | 18 | 973.7 |
| 20260503214606 | 72 | 290 | 6.0 | 12.0 | 0.00 | 0.00 | 0.00 | 22 | 973.9 |
| 20260503213054 | 72 | 313 | 7.0 | 13.0 | 0.00 | 0.00 | 0.00 | 21 | 974.0 |
| 20260503211603 | 73 | 300 | 6.0 | 15.0 | 0.00 | 0.00 | 0.00 | 22 | 974.0 |
| 20260503210050 | 72 | 34 | 4.0 | 10.0 | 0.00 | 0.00 | 0.00 | 25 | 974.0 |
| 20260503204549 | 72 | 289 | 4.0 | 12.0 | 0.00 | 0.00 | 0.00 | 24 | 974.3 |
| 20260503203044 | 72 | 12 | 3.0 | 11.0 | 0.00 | 0.00 | 0.00 | 29 | 974.3 |
| 20260503201543 | 72 | 291 | 4.0 | 10.0 | 0.00 | 0.00 | 0.00 | 25 | 974.4 |
| 20260503200040 | 71 | 269 | 5.0 | 10.0 | 0.00 | 0.00 | 0.00 | 25 | 974.6 |
| 20260503194543 | 71 | 294 | 5.0 | 11.0 | 0.00 | 0.00 | 0.00 | 28 | 974.7 |
| 20260503193020 | 70 | 298 | 4.0 | 11.0 | 0.00 | 0.00 | 0.00 | 30 | 974.9 |
| 20260503191505 | 70 | 247 | 4.0 | 10.0 | 0.00 | 0.00 | 0.00 | 27 | 975.2 |
| 20260503190040 | 70 | 267 | 4.0 | 12.0 | 0.00 | 0.00 | 0.00 | 26 | 975.2 |
| 20260503184528 | 69 | 288 | 4.0 | 9.0 | 0.00 | 0.00 | 0.00 | 30 | 975.3 |
| 20260503183058 | 68 | 271 | 7.0 | 12.0 | 0.00 | 0.00 | 0.00 | 28 | 975.5 |
| 20260503181602 | 68 | 360 | 4.0 | 10.0 | 0.00 | 0.00 | 0.00 | 28 | 975.7 |
| 20260503180050 | 68 | 275 | 4.0 | 10.0 | 0.00 | 0.00 | 0.00 | 29 | 975.8 |
| 20260503174603 | 67 | 313 | 3.0 | 15.0 | 0.00 | 0.00 | 0.00 | 29 | 975.8 |
| 20260503173047 | 66 | 255 | 6.0 | 14.0 | 0.00 | 0.00 | 0.00 | 30 | 976.1 |
| 20260503171543 | 64 | 193 | 4.0 | 14.0 | 0.00 | 0.00 | 0.00 | 32 | 976.2 |
| 20260503081601 | 45 | 217 | 1.0 | 3.0 | 0.00 | 0.00 | 0.00 | 51 | 980.3 |
| 20260503071542 | 40 | 222 | 0.0 | 0.0 | 0.00 | 0.00 | 0.00 | 62 | 980.6 |
| 20260503054530 | 40 | 222 | 0.0 | 0.0 | 0.00 | 0.00 | 0.00 | 62 | 981.3 |
| 20260503053020 | 41 | 222 | 0.0 | 0.0 | 0.00 | 0.00 | 0.00 | 61 | 981.4 |
| 20260503051519 | 41 | 222 | 0.0 | 0.0 | 0.00 | 0.00 | 0.00 | 61 | 981.6 |
| 20260503050018 | 41 | 222 | 0.0 | 2.0 | 0.00 | 0.00 | 0.00 | 61 | 981.6 |
| 20260503044515 | 42 | 222 | 0.0 | 1.0 | 0.00 | 0.00 | 0.00 | 60 | 981.6 |
| 20260503043012 | 42 | 222 | 0.0 | 0.0 | 0.00 | 0.00 | 0.00 | 59 | 981.8 |
| 20260503041511 | 43 | 222 | 0.0 | 0.0 | 0.00 | 0.00 | 0.00 | 57 | 982.0 |
| 20260503040008 | 43 | 222 | 0.0 | 0.0 | 0.00 | 0.00 | 0.00 | 54 | 982.1 |
| 20260503034505 | 44 | 222 | 0.0 | 0.0 | 0.00 | 0.00 | 0.00 | 53 | 982.3 |
| 20260503033003 | 45 | 222 | 0.0 | 0.0 | 0.00 | 0.00 | 0.00 | 51 | 982.4 |
| 20260503031502 | 46 | 222 | 0.0 | 0.0 | 0.00 | 0.00 | 0.00 | 48 | 982.5 |
| 20260503030002 | 46 | 222 | 0.0 | 0.0 | 0.00 | 0.00 | 0.00 | 46 | 982.7 |
| 20260503024600 | 48 | 222 | 0.0 | 0.0 | 0.00 | 0.00 | 0.00 | 45 | 982.8 |
| 20260503023058 | 49 | 222 | 0.0 | 0.0 | 0.00 | 0.00 | 0.00 | 43 | 982.8 |
| 20260503021554 | 50 | 222 | 0.0 | 0.0 | 0.00 | 0.00 | 0.00 | 40 | 982.7 |
| 20260503020056 | 51 | 222 | 0.0 | 1.0 | 0.00 | 0.00 | 0.00 | 38 | 982.6 |
| 20260503014605 | 53 | 222 | 0.0 | 1.0 | 0.00 | 0.00 | 0.00 | 34 | 982.7 |
| 20260503013048 | 54 | 222 | 0.0 | 1.0 | 0.00 | 0.00 | 0.00 | 32 | 982.5 |
| 20260503011548 | 55 | 222 | 0.0 | 0.0 | 0.00 | 0.00 | 0.00 | 30 | 982.7 |
| 20260503010044 | 57 | 222 | 0.0 | 2.0 | 0.00 | 0.00 | 0.00 | 29 | 982.6 |
| 20260503004543 | 58 | 222 | 0.0 | 3.0 | 0.00 | 0.00 | 0.00 | 25 | 982.6 |
| 20260503003033 | 58 | 211 | 0.0 | 4.0 | 0.00 | 0.00 | 0.00 | 23 | 982.7 |
| 20260503001511 | 59 | 241 | 1.0 | 5.0 | 0.00 | 0.00 | 0.00 | 22 | 982.9 |